Weather History for K4A9 - December, 2012

Change the Weather History Date:

Thursday, December 6, 2012

  Actual Average (KRMG) Record (KRMG)
Temperature  
Mean Temperature 58 °F 44 °F  
Max Temperature 64 °F 55 °F 77 °F (1998)
Min Temperature 51 °F 34 °F 23 °F (2008)
Degree Days  
Heating Degree Days 8 21  
Month to date heating degree days 120  
Since 1 July heating degree days 727  
Growing Degree Days 8 (Base 50)    
Moisture  
Dew Point 41 °F    
Average Humidity 55    
Maximum Humidity 71    
Minimum Humidity 45    
Precipitation  
Precipitation 0.00 in 0.19 in 1.49 in (2014)
Month to date precipitation 1.13  
Year to date precipitation 48.67  
Sea Level Pressure  
Sea Level Pressure 30.09 in    
Wind  
Wind Speed 4 mph (East)    
Max Wind Speed 8 mph    
Max Gust Speed 16 mph    
Visibility 10 miles    
Events      
T = Trace of Precipitation, MM = Missing Value Source: NWS Daily Summary

Daily Weather History Graph

Daily Weather History Graph

Search for Another Location

Airport or City:

Trip Planner

Search our weather history database for the weather conditions in past years. The results will help you decide how hot, cold, wet, or windy it might be!

Date:

Astronomy

Dec. 06, 2012 Rise Set
Actual Time 6:35 AM CST 4:32 PM CST
Civil Twilight 6:08 AM CST 5:00 PM CST
Nautical Twilight 5:36 AM CST 5:31 PM CST
Astronomical Twilight 5:06 AM CST 6:01 PM CST
Moon No Moon Rise 11:42 AM CST (12/6)
Length of Visible Light 10h 51m
Length of Day
9h 56m
Waning Gibbous, 49% of the Moon is Illuminated
Dec 6
Waning Gibbous
Dec 13
New
Dec 19
First Quarter
Dec 28
Full
Jan 4
Last Quarter

Hourly Weather History & Observations

Time (CST) Temp. Dew Point Humidity Pressure Visibility Wind Dir Wind Speed Gust Speed Precip Events Conditions
7:35 AM 57.2 °F 41.0 °F 55% 30.14 in 10.0 mi North 3.5 mph - N/A   Overcast
7:55 AM 55.4 °F 41.0 °F 58% 30.14 in 10.0 mi Calm Calm - N/A   Mostly Cloudy
8:15 AM 57.2 °F 39.2 °F 51% 30.14 in 10.0 mi SE 3.5 mph - N/A   Mostly Cloudy
8:35 AM 57.2 °F 39.2 °F 51% 30.14 in 10.0 mi ESE 6.9 mph - N/A   Overcast
8:55 AM 57.2 °F 37.4 °F 48% 30.14 in 10.0 mi NE 4.6 mph - N/A   Overcast
9:15 AM 57.2 °F 37.4 °F 48% 30.15 in 10.0 mi East 3.5 mph - N/A   Overcast
9:35 AM 59.0 °F 37.4 °F 45% 30.15 in 10.0 mi NE 3.5 mph - N/A   Overcast
9:55 AM 59.0 °F 37.4 °F 45% 30.15 in 10.0 mi East 6.9 mph - N/A   Overcast
10:15 AM 59.0 °F 41.0 °F 51% 30.14 in 10.0 mi ESE 6.9 mph - N/A   Overcast
10:35 AM 60.8 °F 41.0 °F 48% 30.13 in 10.0 mi East 4.6 mph - N/A   Overcast
10:55 AM 60.8 °F 42.8 °F 52% 30.12 in 10.0 mi ESE 5.8 mph - N/A   Scattered Clouds
11:15 AM 62.6 °F 42.8 °F 48% 30.10 in 10.0 mi ESE 8.1 mph 16.1 mph N/A   Clear
11:35 AM 62.6 °F 42.8 °F 48% 30.10 in 10.0 mi South 4.6 mph - N/A   Clear
11:55 AM 64.4 °F 42.8 °F 45% 30.09 in 10.0 mi SE 8.1 mph - N/A   Clear
12:15 PM 64.4 °F 42.8 °F 45% 30.09 in 10.0 mi East 5.8 mph - N/A   Mostly Cloudy
12:35 PM 64.4 °F 44.6 °F 49% 30.09 in 10.0 mi SE 5.8 mph - N/A   Overcast
12:55 PM 64.4 °F 42.8 °F 45% 30.08 in 10.0 mi SE 4.6 mph - N/A   Overcast
1:15 PM 64.4 °F 42.8 °F 45% 30.07 in 10.0 mi ESE 6.9 mph - N/A   Overcast
1:35 PM 64.4 °F 44.6 °F 49% 30.07 in 10.0 mi East 5.8 mph - N/A   Overcast
1:55 PM 64.4 °F 44.6 °F 49% 30.07 in 10.0 mi ESE 3.5 mph - N/A   Mostly Cloudy
2:15 PM 64.4 °F 44.6 °F 49% 30.07 in 10.0 mi Calm Calm - N/A   Mostly Cloudy
2:35 PM 64.4 °F 44.6 °F 49% 30.07 in 10.0 mi ESE 4.6 mph - N/A   Mostly Cloudy
2:55 PM 64.4 °F 44.6 °F 49% 30.06 in 10.0 mi ESE 3.5 mph - N/A   Mostly Cloudy
3:15 PM 64.4 °F 44.6 °F 49% 30.06 in 10.0 mi ESE 6.9 mph - N/A   Scattered Clouds
3:35 PM 64.4 °F 44.6 °F 49% 30.05 in 10.0 mi ESE 6.9 mph - N/A   Clear
3:55 PM 62.6 °F 42.8 °F 48% 30.05 in 10.0 mi East 5.8 mph - N/A   Clear
4:15 PM 60.8 °F 42.8 °F 52% 30.05 in 10.0 mi East 6.9 mph - N/A   Clear
4:35 PM 59.0 °F 42.8 °F 55% 30.05 in 10.0 mi East 4.6 mph - N/A   Clear
4:55 PM 59.0 °F 41.0 °F 51% 30.05 in 10.0 mi Calm Calm - N/A   Clear
5:15 PM 57.2 °F 41.0 °F 55% 30.05 in 10.0 mi NE 4.6 mph - N/A   Clear
5:35 PM 57.2 °F 41.0 °F 55% 30.06 in 10.0 mi NNE 3.5 mph - N/A   Clear
5:55 PM 55.4 °F 41.0 °F 58% 30.06 in 10.0 mi Calm Calm - N/A   Clear
6:15 PM 55.4 °F 41.0 °F 58% 30.07 in 10.0 mi NE 3.5 mph - N/A   Clear
6:35 PM 55.4 °F 41.0 °F 58% 30.09 in 10.0 mi NNE 4.6 mph - N/A   Clear
6:55 PM 53.6 °F 41.0 °F 62% 30.09 in 10.0 mi East 6.9 mph - N/A   Clear
7:15 PM 53.6 °F 41.0 °F 62% 30.09 in 10.0 mi Calm Calm - N/A   Clear
7:35 PM 53.6 °F 41.0 °F 62% 30.08 in 10.0 mi East 5.8 mph - N/A   Clear
7:55 PM 53.6 °F 41.0 °F 62% 30.08 in 10.0 mi NE 4.6 mph - N/A   Clear
8:35 PM 51.8 °F 41.0 °F 67% 30.09 in 10.0 mi Calm Calm - N/A   Clear
8:55 PM 51.8 °F 41.0 °F 67% 30.09 in 10.0 mi Calm Calm - N/A   Clear
9:15 PM 51.8 °F 39.2 °F 62% 30.08 in 10.0 mi Calm Calm - N/A   Clear
9:35 PM 51.8 °F 41.0 °F 67% 30.09 in 10.0 mi NNE 4.6 mph - N/A   Clear
9:55 PM 51.8 °F 39.2 °F 62% 30.09 in 10.0 mi Calm Calm - N/A   Clear
10:15 PM 51.8 °F 39.2 °F 62% 30.08 in 10.0 mi NNE 3.5 mph - N/A   Clear
10:35 PM 51.8 °F 39.2 °F 62% 30.08 in 10.0 mi Calm Calm - N/A   Clear
10:55 PM 51.8 °F 41.0 °F 67% 30.08 in 10.0 mi NNE 3.5 mph - N/A   Mostly Cloudy
11:15 PM 51.8 °F 41.0 °F 67% 30.08 in 10.0 mi Calm Calm - N/A   Overcast
11:35 PM 51.8 °F 41.0 °F 67% 30.08 in 10.0 mi Calm Calm - N/A   Overcast
11:55 PM 51.8 °F 42.8 °F 71% 30.08 in 10.0 mi Calm Calm - N/A   Overcast